Regional Weather Roundup
Issued by NWS

Home | Current Version | Previous Version | Graphics & Text | Print | Product List | Glossary On
Versions: 1 2 3 4 5 6 7 8 9 10 11 12 13 14 15 16 17 18 19 20 21 22 23 24 25 26 27 28 29 30 31 32 33 34 35 36 37 38 39 40 41 42 43 44 45 46 47 48 49 50
000
ASUS43 KMKX 050321
RWRWI

WISCONSIN REGIONAL WEATHER ROUNDUP
NATIONAL WEATHER SERVICE MILWAUKEE/SULLIVAN WI
1000 PM CDT TUE AUG 04 2015

NOTE: "FAIR" INDICATES FEW OR NO CLOUDS BELOW 12,000 FEET WITH NO
SIGNIFICANT WEATHER AND/OR OBSTRUCTIONS TO VISIBILITY.

WIZ001-002-006>008-014>016-023>028-050400-
NORTHWEST WISCONSIN

CITY           SKY/WX    TMP DP  RH WIND       PRES   REMARKS
SUPERIOR ARPT  CLOUDY    58  51  79 NE5       30.04R
ASHLAND        CLEAR     55  53  93 E5        30.05R
HAYWARD        PTCLDY    58  53  84 NE7       30.04R
SIREN          CLEAR     61  55  80 CALM      30.03R
CUMBERLAND     CLEAR     59  52  77 CALM      30.03R
RICE LAKE      CLEAR     61  55  80 CALM      30.04R
CHETEK         CLEAR     66  57  71 NE5       30.02R
LADYSMITH      CLEAR     60  55  83 NE5       30.05R
EAU CLAIRE     CLEAR     64  58  80 CALM      30.00R
MENOMONIE      CLEAR     67  57  69 CALM      30.02R
NEW RICHMOND   CLEAR     62  56  80 CALM      30.02R
OSCEOLA        CLEAR     62  59  90 CALM      30.04R
$$

WIZ003>005-009-010-017-018-050400-
NORTH CENTRAL WISCONSIN

CITY           SKY/WX    TMP DP  RH WIND       PRES   REMARKS
MANITOWISH WTR CLEAR     55  51  86 CALM      30.05R
ARBOR VITAE    CLEAR     57  51  79 CALM      30.05R
WOODRUFF       CLEAR     57  51  79 CALM      30.05R
RHINELANDER    CLOUDY    60  52  74 CALM      30.05R
EAGLE RIVER    CLEAR     54  47  77 NE3       30.05R
LAND O LAKES   CLEAR     55  50  81 N3        30.06R
PHILLIPS       CLOUDY    59  53  82 NE5       30.05R
TOMAHAWK       CLOUDY    60  52  76 CALM      30.05R
MEDFORD        PTCLDY    56  55  94 NE5       30.03R
MERRILL        NOT AVBL
$$

WIZ029-030-035-036-043>047-050400-
CENTRAL WISCONSIN

CITY           SKY/WX    TMP DP  RH WIND       PRES   REMARKS
WAUSAU         MOCLDY    63  54  72 CALM      30.02R
MOSINEE        CLEAR     61  55  82 CALM      30.03R
MARSHFIELD     CLEAR     62  54  74 CALM      30.02R
STEVENS POINT  PTCLDY    59  53  82 CALM      30.03R
WAUPACA        CLEAR     63  56  80 CALM      30.01S
WAUTOMA        CLEAR     62  55  77 CALM      30.03R
WISC RAPIDS    CLEAR     61  53  75 CALM      30.03R
CAMP DOUGLAS   CLEAR     57  57 100 CALM      30.02R
$$

WIZ011>013-019>022-031-037>040-048>050-050400-
NORTHEAST WISCONSIN

CITY           SKY/WX    TMP DP  RH WIND       PRES   REMARKS
ANTIGO         MOCLDY    56  53  89 CALM      30.05R
SHAWANO        CLOUDY    66  55  66 CALM      30.02R
OCONTO         MOCLDY    63  58  85 NE5       30.01R
STURGEON BAY   CLEAR     63  55  77 E3        30.04R
GREEN BAY      CLEAR     62  58  86 N5        30.01R
MANITOWOC      CLEAR     62  60  93 MISG      30.01R
APPLETON       PTCLDY    64  52  63 NW6       30.02R
CLINTONVILLE   CLEAR     59  54  82 CALM      30.02R
OSHKOSH        CLEAR     62  55  77 CALM      30.01R
$$

WIZ032>034-041-042-053>061-050400-
SOUTHWEST WISCONSIN

CITY           SKY/WX    TMP DP  RH WIND       PRES   REMARKS
LA CROSSE      CLEAR     67  58  72 SE6       30.01R
SPARTA         CLEAR     61  55  81 CALM      30.03R
VIROQUA        CLEAR     64  55  73 SW5       30.05R
BOSCOBEL       PTCLDY    62  58  86 CALM      30.04R
PRAIRIE DU CHI PTCLDY    63  57  80 CALM      30.04R
PLATTEVILLE    PTCLDY    66  56  71 CALM      30.04S
$$

WIZ056-057-062-063-064-067-068-050400-
SOUTH CENTRAL WISCONSIN

CITY           SKY/WX    TMP DP  RH WIND       PRES   REMARKS
REEDSBURG      CLEAR     64  56  75 CALM      30.03R
BARABOO/DELLS  CLEAR     64  53  68 S3        30.03R
LONE ROCK      PTCLDY    61  56  83 CALM      30.04R
MINERAL POINT  PTCLDY    68  54  60 CALM      30.05S
MADISON        MOCLDY    66  54  65 CALM      30.02R
MIDDLETON      PTCLDY    61  57  85 CALM      30.04R
WATERTOWN      PTCLDY    62  61  94 CALM      30.02R
MONROE         PTCLDY    70  54  56 W6        30.05R
JANESVILLE     PTCLDY    64  57  77 CALM      30.03R
$$

WIZ051-052-058>065-066-070>072-050400-
SOUTHEAST WISCONSIN

CITY           SKY/WX    TMP DP  RH WIND       PRES   REMARKS
MILWAUKEE      PTCLDY    68  56  65 S5        30.02R
WAUKESHA       CLEAR     61  52  72 CALM      30.03S
MILWAUKEE/TIMM CLEAR     68  50  52 CALM      30.03R
RACINE         PTCLDY    66  57  72 S5        30.04R
BURLINGTON     PTCLDY    58  55  91 CALM      30.03R
KENOSHA        PTCLDY    63  56  78 SW3       30.03R
FOND DU LAC    CLEAR     63  56  78 W3        30.01R
SHEBOYGAN      PTCLDY    60  55  83 CALM      30.01R
WEST BEND      CLEAR     61  55  82 CALM      30.02R
JUNEAU         CLEAR     62  57  84 CALM      30.03S
$$

LSZ147-162-050400-
LAKE SUPERIOR

STATION/POSITION TIME  TEMP    WIND        PRES    WAVE
                       AIR SEA DIR/SP/G            HT/PER
                 (UTC) (F)     (DEG/KT/KT) (MB)    (FT/S)
W MID LAKE BUOY  0250   58 58  210/  4/  6 1017.3R   0
DEVILS ISLAND    0300   60     170/  7/  7 1017.7R
PORT WING        0200   64      90/  2/  4 1016.9R
SAXON HARBOR     0240   57      CALM  /  2 1016.9R
$$

LMZ867-665-643>646-050400-
LAKE MICHIGAN

STATION/POSITION TIME  TEMP    WIND        PRES    WAVE
                       AIR SEA DIR/SP/G            HT/PER
                 (UTC) (F)     (DEG/KT/KT) (MB)    (FT/S)
CHAMBERS ISLAND  0200   65      40/  7/ 10 1015.9R
N MID LAKE BUOY  0250   63 68  340/ 12/ 14 1016.1R   1/ 3
NORTHPORT PIER   0200   64      40/  7/  9 1015.9R
SISTER BAY       0248   61      CALM  /  3   N/A
ALGOMA LAKESHORE 0213           40/  6/  8   N/A
KEWAUNEE LAKESHO 0200   63      40/  6/  8 1015.0R
SHEBOYGAN LAKESH 0300   71     270/  1/  2 1016.3R
PORT WASHINGTON  0200   73     310/  2/  4 1016.3
ATWATER BUOY     0300   69 66  190/  8/  8 1017.7R
MILWAUKEE LAKESH 0300   70     190/  5/  6   N/A
KENOSHA   LAKESH 0300   69     210/  6/  8 1016.3R
$$

TC  - TEMPERATURE IN CELSIUS
VSB - VISIBILITY IN STATUTE MILES
WCI - WIND CHILL INDEX
HX  - HEAT INDEX




USA.gov is the U.S. government's official web portal to all federal, state and local government web resources and services.